Home > Time Zones > World Clock > Weather > Iran > Ahvaz > Past weeks

Flag for Iran Weather past 2 weeks in Ahvaz, Iran

Now
117 °F

Sunny.


Feels Like: 116 °F
Forecast: 89 / 119 °F
Wind: 9 mph from Southwest

Location: Ahwaz

Current Time: Jul 31, 2015 at 6:19:37 PM

Latest Report: Jul 31, 2015 at 6:00 PM


Visibility: 10 mi

Pressure: 29.39 "Hg

Humidity: 14%

Dew point: 55 °F

Location of AhvazLocation

Historic Weather in Ahvaz — Graph

°F

Ahvaz temperature yesterday

Maximum temperature yesterday: 122 °F (at 3:00 PM)
Minimum temperature yesterday: 90 °F (at 6:30 AM)
Average temperature yesterday: 107 °F

Past Weeks' High & Low Weather Summary

 TemperatureHumidityPressure
High122 °F (Jul 16, 4:30 PM)71% (Jul 28, 7:30 AM)29.53 "Hg (Jul 28, 7:30 AM)
Low84 °F (Jul 19, 7:30 AM)9% (Jul 17, 3:30 PM)29.30 "Hg (Jul 19, 4:30 PM)
Average105 °F26%29.41 "Hg
* Reported Jul 16 4:30 PM — Jul 31 5:00 PM, Ahvaz, Weather by CustomWeather, © 2015

Note: Actual official high and low records may vary slightly from our data, if they occured in-between our weather recording intervals... More about our weather records

Advertising

Ahvaz weather history for previous 24 hours

 ConditionsComfort  
Time TempWeatherWind HumidityBarometerVisibility
5:00 PM
Fri, Jul 31
117 °FSunny.12 mph15%29.42 "Hg10 mi
4:30 PM118 °FSunny.9 mph14%29.42 "Hg10 mi
4:00 PM117 °FSunny.9 mph18%29.45 "Hg10 mi
3:30 PM117 °FSunny.9 mph18%29.45 "Hg10 mi
3:00 PM117 °FSunny.7 mph18%29.45 "Hg10 mi
2:30 PM117 °FSunny.7 mph18%29.45 "Hg10 mi
1:55 PM117 °FSunny.7 mph17%29.47 "Hg10 mi
1:30 PM117 °FSunny.7 mph17%29.47 "Hg10 mi
1:00 PM115 °FSunny.5 mph19%29.47 "Hg10 mi
12:30 PM115 °FSunny.2 mph19%29.50 "Hg10 mi
12:00 PM111 °FSunny.2 mph20%29.50 "Hg10 mi
11:30 AM111 °FSunny.5 mph21%29.50 "Hg10 mi
11:00 AM109 °FClear.2 mph22%29.50 "Hg4 mi
10:30 AM106 °FClear.2 mph26%29.50 "Hg4 mi
9:55 AM104 °FClear.7 mph29%29.47 "Hg4 mi
9:30 AM102 °FClear.7 mph31%29.47 "Hg4 mi
9:00 AM99 °FClear.7 mph39%29.47 "Hg4 mi
8:30 AM93 °FClear.5 mph49%29.47 "Hg4 mi
7:55 AM91 °FPassing clouds.5 mph56%29.47 "Hg4 mi
7:30 AM91 °FPassing clouds.5 mph56%29.45 "Hg4 mi
6:30 AM93 °FPartly cloudy.5 mph53%29.45 "Hg4 mi
5:30 AM93 °FPassing clouds.7 mph41%29.45 "Hg4 mi
4:30 AM95 °FPassing clouds.No wind39%29.45 "Hg4 mi
3:30 AM95 °FClear.5 mph34%29.45 "Hg4 mi
2:30 AM95 °FClear.5 mph34%29.45 "Hg4 mi
1:30 AM97 °FClear.5 mph32%29.45 "Hg5 mi
12:55 AM97 °FClear.No wind39%29.45 "Hg10 mi
12:30 AM99 °FClear.2 mph31%29.45 "Hg10 mi
12:00 AM99 °FClear.2 mph35%29.45 "Hg10 mi
11:30 PM
Thu, Jul 30
102 °FClear.No wind31%29.42 "Hg10 mi
10:30 PM106 °FClear.7 mph25%29.42 "Hg10 mi
10:00 PM106 °FClear.5 mph25%29.39 "Hg10 mi
9:30 PM108 °FSunny.5 mph23%29.39 "Hg10 mi
9:00 PM109 °FSunny.5 mph19%29.39 "Hg10 mi
8:30 PM113 °FSunny.7 mph19%29.39 "Hg10 mi
8:00 PM113 °FSunny.5 mph16%29.39 "Hg10 mi
7:30 PM117 °FSunny.9 mph14%29.36 "Hg10 mi
7:00 PM117 °FSunny.9 mph14%29.36 "Hg10 mi
6:30 PM118 °FSunny.7 mph13%29.36 "Hg10 mi
6:00 PM120 °FSunny.7 mph11%29.39 "Hg10 mi
Weather by CustomWeather, © 2015

See weather overviewHow to use our weather pages